ハリントン-エーベル彗星

52P/Harrington-Abell (2014)

English version
Home page
Updated on May 7, 2015

---------------------------------------------------------------------

・ プロフィール

・ 写真集

・ 軌道要素

Epoch 2014 Mar. 4.0 TT = JDT 2456720.5
T 2014 Mar. 7.54569 TT                                  MPC
q   1.7731325            (2000.0)            P               Q
n   0.12996686     Peri.  139.61554     -0.44975690     -0.89041804
a   3.8599436      Node   336.85308     +0.76684496     -0.34489689
e   0.5406325      Incl.   10.23066     +0.45789468     -0.29698798
P   7.58
From 1179 observations 1983 Sept. 17-2014 May 3, mean residual 0".6.
     Nongravitational parameters A1 = +0.15, A2 = +0.0049.

・ 星図

・ 光度変化

        m1 = 10.0 + 5 logΔ + 20.0 log r

---------------------------------------------------------------------

軌道要素はM.P.E.C. 2014-J58に掲載されたものです。
星図はステラナビゲータ Ver.8 (アストロアーツ) で作成したものです。
光度グラフはComet for Windowsで作成したものです。

---------------------------------------------------------------------

Copyright(C) Seiichi Yoshida (comet@aerith.net). All rights reserved.